Hourly Data Report for September 18, 2006

TORONTO CITY
ONTARIO

43°40'00.000" N
79°24'00.000" W
112.50 m
6158355
71508
XTO

Download Data

Hourly Data (September 2006)
Hourly Data Report for September 18, 2006
TIME
LST
Temp Definition
°C
Dew Point Definition
°C
Rel Hum Definition
%
Precip. Amount Definition
mm

Wind Dir Definition
10's deg

Wind Spd Definition
km/h
Visibility Definition
km
Stn Press Definition
kPa
Hmdx Definition


Wind Chill Definition


Weather Definition


00:00 19.2 17.8 92   LegendMM LegendMM   99.59     LegendNANA
01:00 19.4 17.8 90   LegendMM LegendMM   99.55     LegendNANA
02:00 19.2 17.5 90   LegendMM LegendMM   99.51     LegendNANA
03:00 19.3 17.8 91   LegendMM LegendMM   99.44     LegendNANA
04:00 19.2 18.1 93   LegendMM LegendMM   99.45     LegendNANA
05:00 19.6 18.3 92   LegendMM LegendMM   99.44     LegendNANA
06:00 19.3 18.1 93   LegendMM LegendMM   99.42     LegendNANA
07:00 19.9 18.5 92   LegendMM LegendMM   99.41     LegendNANA
08:00 20.8 18.6 87   LegendMM LegendMM   99.38 27   LegendNANA
09:00 21.3 18.5 84   LegendMM LegendMM   99.36 28   LegendNANA
10:00 22.9 18.6 77   LegendMM LegendMM   99.31 29   LegendNANA
11:00 24.0 18.7 72   LegendMM LegendMM   99.27 31   LegendNANA
12:00 24.8 18.3 67   LegendMM LegendMM   99.21 31   LegendNANA
13:00 23.5 18.3 73   LegendMM LegendMM   99.17 30   LegendNANA
14:00 23.4 18.8 75   LegendMM LegendMM   99.14 30   LegendNANA
15:00 22.1 19.1 83   LegendMM LegendMM   99.14 29   LegendNANA
16:00 22.0 19.5 86   LegendMM LegendMM   99.12 29   LegendNANA
17:00 22.1 19.5 85   LegendMM LegendMM   99.11 29   LegendNANA
18:00 21.9 19.4 86   LegendMM LegendMM   99.09 29   LegendNANA
19:00 20.8 19.5 92   LegendMM LegendMM   99.12 28   LegendNANA
20:00 19.8 19.2 96   LegendMM LegendMM   99.15     LegendNANA
21:00 18.6 18.1 97   LegendMM LegendMM   99.10     LegendNANA
22:00 17.9 17.5 98   LegendMM LegendMM   99.09     LegendNANA
23:00 16.7 16.1 96   LegendMM LegendMM   99.11     LegendNANA

Notes on Data Quality.

Legend

  • E = Estimated
  • M = Missing
  • NA = Not Available*
  • [empty] = Indicates an unobserved value
Date modified: